| time (UTC) | temp F | wind direction | speed knots | gust knots | rain 1hr in | rain 24hr in | rain mn in | humidity % | barometer mb |
| 20260508013107 | 51 | 0.0 | 0.0 | 0.00 | 0.00 | 0.00 | 63 | 797.1 | |
| 20260508011556 | 51 | 0.0 | 0.0 | 0.00 | 0.00 | 0.00 | 61 | 797.9 | |
| 20260508010046 | 52 | 0.0 | 0.0 | 0.00 | 0.00 | 0.00 | 61 | 797.6 | |
| 20260508004531 | 52 | 0.0 | 0.0 | 0.00 | 0.00 | 0.00 | 61 | 799.3 | |
| 20260508003155 | 53 | 0.0 | 0.0 | 0.00 | 0.00 | 0.00 | 60 | 799.3 | |
| 20260508001556 | 53 | 0.0 | 0.0 | 0.00 | 0.00 | 0.00 | 59 | 800.1 | |
| 20260508000046 | 53 | 0.0 | 0.0 | 0.00 | 0.00 | 0.00 | 57 | 801.0 | |
| 20260507234532 | 54 | 0.0 | 0.0 | 0.00 | 0.00 | 0.00 | 56 | 802.5 | |
| 20260507233019 | 54 | 0.0 | 0.0 | 0.00 | 0.00 | 0.00 | 54 | 803.3 | |
| 20260507231644 | 55 | 0.0 | 0.0 | 0.00 | 0.00 | 0.00 | 53 | 804.9 | |
| 20260507230046 | 55 | 0.0 | 0.0 | 0.00 | 0.00 | 0.00 | 52 | 806.5 | |
| 20260507224531 | 56 | 0.0 | 0.0 | 0.00 | 0.00 | 0.00 | 50 | 809.6 | |
| 20260507223307 | 56 | 0.0 | 0.0 | 0.00 | 0.00 | 0.00 | 50 | 810.3 | |
| 20260507221644 | 57 | 0.0 | 0.0 | 0.00 | 0.00 | 0.00 | 48 | 812.5 | |
| 20260507220046 | 57 | 0.0 | 0.0 | 0.00 | 0.00 | 0.00 | 47 | 813.1 | |
| 20260507214531 | 58 | 0.0 | 0.0 | 0.00 | 0.00 | 0.00 | 46 | 813.2 | |
| 20260507213019 | 58 | 0.0 | 0.0 | 0.00 | 0.00 | 0.00 | 46 | 813.1 | |
| 20260507211556 | 58 | 0.0 | 0.0 | 0.00 | 0.00 | 0.00 | 45 | 813.8 | |
| 20260507210045 | 58 | 0.0 | 0.0 | 0.00 | 0.00 | 0.00 | 45 | 813.1 | |
| 20260507204531 | 58 | 0.0 | 0.0 | 0.00 | 0.00 | 0.00 | 43 | 813.7 | |
| 20260507203019 | 59 | 0.0 | 0.0 | 0.00 | 0.00 | 0.00 | 41 | 813.7 | |
| 20260507201556 | 60 | 0.0 | 0.0 | 0.00 | 0.00 | 0.00 | 39 | 813.6 | |
| 20260507200059 | 60 | 0.0 | 0.0 | 0.00 | 0.00 | 0.00 | 38 | 814.3 | |
| 20260507194531 | 60 | 0.0 | 0.0 | 0.00 | 0.00 | 0.00 | 37 | 813.5 | |
| 20260507193019 | 61 | 0.0 | 0.0 | 0.00 | 0.00 | 0.00 | 35 | 814.2 | |
| 20260507191556 | 61 | 0.0 | 0.0 | 0.00 | 0.00 | 0.00 | 35 | 813.4 | |
| 20260507190134 | 61 | 0.0 | 0.0 | 0.00 | 0.00 | 0.00 | 34 | 814.0 | |
| 20260507184536 | 62 | 0.0 | 0.0 | 0.00 | 0.00 | 0.00 | 33 | 813.2 | |
| 20260507183019 | 62 | 0.0 | 0.0 | 0.00 | 0.00 | 0.00 | 33 | 813.9 | |
| 20260507181643 | 62 | 0.0 | 0.0 | 0.00 | 0.00 | 0.00 | 33 | 813.8 | |
| 20260507180134 | 63 | 0.0 | 0.0 | 0.00 | 0.00 | 0.00 | 32 | 813.0 | |
| 20260507174619 | 63 | 0.0 | 0.0 | 0.00 | 0.00 | 0.00 | 31 | 812.8 | |
| 20260507173156 | 63 | 0.0 | 0.0 | 0.00 | 0.00 | 0.00 | 30 | 812.0 | |
| 20260507171556 | 64 | 0.0 | 0.0 | 0.00 | 0.00 | 0.00 | 28 | 811.2 | |
| 20260507170045 | 65 | 0.0 | 0.0 | 0.00 | 0.00 | 0.00 | 27 | 808.7 | |
| 20260507164531 | 66 | 0.0 | 0.0 | 0.00 | 0.00 | 0.00 | 23 | 807.2 | |
| 20260507163244 | 66 | 0.0 | 0.0 | 0.00 | 0.00 | 0.00 | 22 | 804.8 | |
| 20260507161556 | 66 | 0.0 | 0.0 | 0.00 | 0.00 | 0.00 | 21 | 802.5 | |
| 20260507160046 | 67 | 0.0 | 0.0 | 0.00 | 0.00 | 0.00 | 19 | 802.4 | |
| 20260507154531 | 68 | 0.0 | 0.0 | 0.00 | 0.00 | 0.00 | 18 | 804.0 | |
| 20260507153019 | 69 | 0.0 | 0.0 | 0.00 | 0.00 | 0.00 | 17 | 806.3 | |
| 20260507151556 | 70 | 0.0 | 0.0 | 0.00 | 0.00 | 0.00 | 15 | 806.2 | |
| 20260507150046 | 72 | 0.0 | 0.0 | 0.00 | 0.00 | 0.00 | 13 | 806.9 | |
| 20260507144532 | 72 | 0.0 | 0.0 | 0.00 | 0.00 | 0.00 | 14 | 806.1 | |
| 20260507143019 | 72 | 0.0 | 0.0 | 0.00 | 0.00 | 0.00 | 14 | 806.1 | |
| 20260507141556 | 72 | 0.0 | 0.0 | 0.00 | 0.00 | 0.00 | 13 | 806.1 | |
| 20260507140046 | 72 | 0.0 | 0.0 | 0.00 | 0.00 | 0.00 | 14 | 806.0 | |
| 20260507134619 | 71 | 0.0 | 0.0 | 0.00 | 0.00 | 0.00 | 14 | 804.5 | |
| 20260507133020 | 72 | 0.0 | 0.0 | 0.00 | 0.00 | 0.00 | 15 | 804.5 | |
| 20260507131556 | 72 | 0.0 | 0.0 | 0.00 | 0.00 | 0.00 | 14 | 806.1 | |
| 20260507130134 | 72 | 0.0 | 0.0 | 0.00 | 0.00 | 0.00 | 14 | 803.1 | |
| 20260507124620 | 72 | 0.0 | 0.0 | 0.00 | 0.00 | 0.00 | 15 | 803.1 | |
| 20260507123019 | 72 | 0.0 | 0.0 | 0.00 | 0.00 | 0.00 | 15 | 804.6 | |
| 20260507121644 | 71 | 0.0 | 0.0 | 0.00 | 0.00 | 0.00 | 16 | 806.3 | |
| 20260507120046 | 71 | 0.0 | 0.0 | 0.00 | 0.00 | 0.00 | 17 | 803.9 | |
| 20260507114620 | 70 | 0.0 | 0.0 | 0.00 | 0.00 | 0.00 | 17 | 804.0 | |
| 20260507113019 | 70 | 0.0 | 0.0 | 0.00 | 0.00 | 0.00 | 19 | 803.2 | |
| 20260507111555 | 70 | 0.0 | 0.0 | 0.00 | 0.00 | 0.00 | 19 | 804.1 | |
| 20260507110046 | 69 | 0.0 | 0.0 | 0.00 | 0.00 | 0.00 | 22 | 804.2 | |
| 20260507104531 | 69 | 0.0 | 0.0 | 0.00 | 0.00 | 0.00 | 23 | 804.2 | |
| 20260507103107 | 67 | 0.0 | 0.0 | 0.00 | 0.00 | 0.00 | 24 | 802.7 | |
| 20260507101556 | 67 | 0.0 | 0.0 | 0.00 | 0.00 | 0.00 | 25 | 803.6 | |
| 20260507100046 | 66 | 0.0 | 0.0 | 0.00 | 0.00 | 0.00 | 28 | 802.7 | |
| 20260507094531 | 66 | 0.0 | 0.0 | 0.00 | 0.00 | 0.00 | 28 | 802.8 | |
| 20260507093019 | 65 | 0.0 | 0.0 | 0.00 | 0.00 | 0.00 | 30 | 802.8 | |
| 20260507091555 | 65 | 0.0 | 0.0 | 0.00 | 0.00 | 0.00 | 31 | 802.0 | |
| 20260507090045 | 64 | 0.0 | 0.0 | 0.00 | 0.00 | 0.00 | 35 | 800.5 | |
| 20260507084531 | 62 | 0.0 | 0.0 | 0.00 | 0.00 | 0.00 | 36 | 800.5 | |
| 20260507083019 | 61 | 0.0 | 0.0 | 0.00 | 0.00 | 0.00 | 35 | 801.1 | |
| 20260507081556 | 61 | 0.0 | 0.0 | 0.00 | 0.00 | 0.00 | 38 | 799.5 | |
| 20260507080222 | 61 | 0.0 | 0.0 | 0.00 | 0.00 | 0.00 | 38 | 799.6 | |
| 20260507074531 | 61 | 0.0 | 0.0 | 0.00 | 0.00 | 0.00 | 39 | 799.6 | |
| 20260507073019 | 60 | 0.0 | 0.0 | 0.00 | 0.00 | 0.00 | 40 | 799.5 | |
| 20260507071555 | 60 | 0.0 | 0.0 | 0.00 | 0.00 | 0.00 | 42 | 801.0 | |
| 20260507070045 | 60 | 0.0 | 0.0 | 0.00 | 0.00 | 0.00 | 42 | 801.0 | |
| 20260507064619 | 60 | 0.0 | 0.0 | 0.00 | 0.00 | 0.00 | 43 | 801.0 | |
| 20260507063019 | 60 | 0.0 | 0.0 | 0.00 | 0.00 | 0.00 | 44 | 801.7 | |
| 20260507061555 | 60 | 0.0 | 0.0 | 0.00 | 0.00 | 0.00 | 46 | 801.6 | |
| 20260507060046 | 59 | 0.0 | 0.0 | 0.00 | 0.00 | 0.00 | 49 | 801.5 | |
| 20260507054531 | 57 | 0.0 | 0.0 | 0.00 | 0.00 | 0.00 | 51 | 800.0 | |
| 20260507053155 | 56 | 0.0 | 0.0 | 0.00 | 0.00 | 0.00 | 52 | 799.1 | |
| 20260507051643 | 56 | 0.0 | 0.0 | 0.00 | 0.00 | 0.00 | 52 | 798.2 | |
| 20260507050134 | 56 | 0.0 | 0.0 | 0.00 | 0.00 | 0.00 | 53 | 798.2 | |
| 20260507044531 | 56 | 0.0 | 0.0 | 0.00 | 0.00 | 0.00 | 53 | 798.9 | |
| 20260507043307 | 55 | 0.0 | 0.0 | 0.00 | 0.00 | 0.00 | 53 | 799.6 | |
| 20260507041807 | 55 | 0.0 | 0.0 | 0.00 | 0.00 | 0.00 | 53 | 800.3 | |
| 20260507040046 | 56 | 0.0 | 0.0 | 0.00 | 0.00 | 0.00 | 52 | 800.2 | |
| 20260507034755 | 56 | 0.0 | 0.0 | 0.00 | 0.00 | 0.00 | 52 | 800.8 | |
| 20260507033018 | 56 | 0.0 | 0.0 | 0.00 | 0.00 | 0.00 | 51 | 802.4 | |
| 20260507031555 | 56 | 0.0 | 0.0 | 0.00 | 0.00 | 0.00 | 51 | 803.1 | |
| 20260507030133 | 56 | 0.0 | 0.0 | 0.00 | 0.00 | 0.00 | 51 | 805.5 | |
| 20260507024531 | 56 | 0.0 | 0.0 | 0.00 | 0.00 | 0.00 | 52 | 807.0 | |
| 20260507023018 | 56 | 0.0 | 0.0 | 0.00 | 0.00 | 0.00 | 51 | 808.4 | |
| 20260507021555 | 57 | 0.0 | 0.0 | 0.00 | 0.00 | 0.00 | 51 | 809.2 | |
| 20260507020045 | 57 | 0.0 | 0.0 | 0.00 | 0.00 | 0.00 | 51 | 810.6 | |
| 20260507014707 | 57 | 0.0 | 0.0 | 0.00 | 0.00 | 0.00 | 52 | 812.7 |